When you browse on this site, cookies collect data to enhance your experience and personalize the content and advertising you see.
Visit our Privacy Policy to learn more. By continuing to use the site, you agree to this use of cookies and data.
  • în România
  • Lista ţărilor
  • Pe 7 zile
  • Temperatura apei
  • Hartă satelitară
  • Meteo pe hartă
  • Widget-uri
  • user-avatar
    Intrare

    Meteo pe oră la Kuzhlevo

    Astăzi, 20 Ianuarie, Duminică

    Timp Temperatura Precipitaţii Vânt Presiune Umiditate
    00:00 -9°C° 0 mm 3 m/s 742 mmHg 91%
    01:00 -9°C° 0 mm 4 m/s 742 mmHg 89%
    02:00 -8°C° 0 mm 4 m/s 742 mmHg 87%
    03:00 -8°C° 0 mm 4 m/s 741 mmHg 87%
    04:00 -8°C° 0 mm 5 m/s 741 mmHg 87%
    05:00 -8°C° 0 mm 5 m/s 740 mmHg 87%
    06:00 -8°C° 0.2 mm 5 m/s 740 mmHg 86%
    07:00 -8°C° 0.2 mm 5 m/s 739 mmHg 86%
    08:00 -8°C° 0.2 mm 6 m/s 739 mmHg 86%
    09:00 -8°C° 0.1 mm 6 m/s 738 mmHg 85%
    10:00 -6°C° 0.1 mm 6 m/s 738 mmHg 84%
    11:00 -6°C° 0.1 mm 7 m/s 738 mmHg 83%
    12:00 -5°C° 0.3 mm 6 m/s 738 mmHg 83%
    13:00 -5°C° 0.3 mm 6 m/s 737 mmHg 83%
    14:00 -5°C° 0.3 mm 5 m/s 737 mmHg 83%
    15:00 -6°C° 0 mm 5 m/s 737 mmHg 83%
    16:00 -7°C° 0 mm 5 m/s 737 mmHg 82%
    17:00 -8°C° 0 mm 5 m/s 737 mmHg 82%
    18:00 -8°C° 0 mm 5 m/s 737 mmHg 82%
    19:00 -10°C° 0 mm 5 m/s 737 mmHg 83%
    20:00 -10°C° 0 mm 5 m/s 737 mmHg 84%
    21:00 -10°C° 0 mm 5 m/s 738 mmHg 85%
    22:00 -10°C° 0 mm 4 m/s 738 mmHg 86%
    23:00 -10°C° 0 mm 4 m/s 738 mmHg 86%

    Mâine, 21 Ianuarie, Luni

    Timp Temperatura Precipitaţii Vânt Presiune Umiditate
    00:00 -11°C° 0 mm 4 m/s 739 mmHg 88%
    01:00 -12°C° 0 mm 3 m/s 739 mmHg 89%
    02:00 -12°C° 0 mm 3 m/s 739 mmHg 90%
    03:00 -13°C° 0 mm 3 m/s 739 mmHg 91%
    04:00 -13°C° 0 mm 2 m/s 740 mmHg 93%
    05:00 -14°C° 0 mm 2 m/s 740 mmHg 94%
    06:00 -15°C° 0 mm 2 m/s 740 mmHg 95%
    07:00 -15°C° 0 mm 2 m/s 740 mmHg 95%
    08:00 -16°C° 0 mm 2 m/s 740 mmHg 96%
    09:00 -15°C° 0.1 mm 2 m/s 741 mmHg 92%
    10:00 -15°C° 0.1 mm 3 m/s 741 mmHg 89%
    11:00 -15°C° 0.1 mm 4 m/s 741 mmHg 85%
    12:00 -14°C° 0 mm 3 m/s 741 mmHg 86%
    13:00 -14°C° 0 mm 3 m/s 742 mmHg 86%
    14:00 -15°C° 0 mm 3 m/s 742 mmHg 86%
    15:00 -16°C° 0 mm 3 m/s 742 mmHg 88%
    16:00 -17°C° 0 mm 3 m/s 742 mmHg 91%
    17:00 -18°C° 0 mm 3 m/s 743 mmHg 93%
    18:00 -19°C° 0 mm 3 m/s 743 mmHg 94%
    19:00 -21°C° 0 mm 3 m/s 743 mmHg 95%
    20:00 -22°C° 0 mm 3 m/s 744 mmHg 95%
    21:00 -22°C° 0 mm 3 m/s 744 mmHg 96%
    22:00 -21°C° 0 mm 2 m/s 744 mmHg 96%
    23:00 -21°C° 0 mm 2 m/s 745 mmHg 97%

    Poimâine, 22 Ianuarie, Marţi

    Timp Temperatura Precipitaţii Vânt Presiune Umiditate
    00:00 -21°C° 0 mm 2 m/s 745 mmHg 96%
    01:00 -21°C° 0 mm 2 m/s 745 mmHg 96%
    02:00 -23°C° 0 mm 3 m/s 745 mmHg 96%
    03:00 -21°C° 0 mm 2 m/s 745 mmHg 96%
    04:00 -21°C° 0 mm 2 m/s 746 mmHg 96%
    05:00 -21°C° 0 mm 2 m/s 746 mmHg 97%
    06:00 -21°C° 0 mm 2 m/s 746 mmHg 97%
    07:00 -21°C° 0 mm 2 m/s 746 mmHg 97%
    08:00 -21°C° 0 mm 2 m/s 747 mmHg 97%
    09:00 -20°C° 0 mm 2 m/s 747 mmHg 96%
    10:00 -19°C° 0 mm 2 m/s 747 mmHg 95%
    11:00 -18°C° 0 mm 2 m/s 748 mmHg 94%
    12:00 -15°C° 0 mm 1 m/s 748 mmHg 94%
    13:00 -15°C° 0 mm 1 m/s 748 mmHg 94%
    14:00 -14°C° 0 mm 1 m/s 748 mmHg 94%
    15:00 -15°C° 0 mm 1 m/s 748 mmHg 94%
    16:00 -17°C° 0 mm 1 m/s 748 mmHg 95%
    17:00 -18°C° 0 mm 1 m/s 748 mmHg 96%
    18:00 -18°C° 0 mm 1 m/s 748 mmHg 95%
    19:00 -19°C° 0 mm 1 m/s 748 mmHg 95%
    20:00 -19°C° 0 mm 1 m/s 748 mmHg 95%
    21:00 -19°C° 0 mm 1 m/s 748 mmHg 94%
    22:00 -20°C° 0 mm 1 m/s 748 mmHg 94%
    23:00 -20°C° 0 mm 1 m/s 748 mmHg 93%

    23 Ianuarie, Miercuri

    Timp Temperatura Precipitaţii Vânt Presiune Umiditate
    00:00 -20°C° 0 mm 1 m/s 748 mmHg 93%
    01:00 -23°C° 0 mm 2 m/s 748 mmHg 93%
    02:00 -23°C° 0 mm 2 m/s 748 mmHg 92%
    03:00 -24°C° 0 mm 2 m/s 748 mmHg 94%
    04:00 -24°C° 0 mm 2 m/s 748 mmHg 96%
    05:00 -24°C° 0 mm 2 m/s 748 mmHg 98%
    06:00 -23°C° 0 mm 2 m/s 748 mmHg 98%
    07:00 -23°C° 0 mm 2 m/s 748 mmHg 98%
    08:00 -21°C° 0 mm 2 m/s 748 mmHg 98%
    09:00 -19°C° 0 mm 2 m/s 748 mmHg 97%
    10:00 -18°C° 0 mm 3 m/s 748 mmHg 95%
    11:00 -16°C° 0 mm 3 m/s 748 mmHg 93%
    12:00 -15°C° 0 mm 3 m/s 747 mmHg 92%
    13:00 -15°C° 0 mm 3 m/s 747 mmHg 91%
    14:00 -14°C° 0 mm 3 m/s 747 mmHg 90%
    15:00 -13°C° 0 mm 3 m/s 747 mmHg 91%
    16:00 -12°C° 0 mm 2 m/s 747 mmHg 92%
    17:00 -12°C° 0 mm 2 m/s 747 mmHg 93%
    18:00 -10°C° 0 mm 2 m/s 747 mmHg 92%
    19:00 -10°C° 0 mm 3 m/s 747 mmHg 92%
    20:00 -9°C° 0 mm 3 m/s 747 mmHg 91%
    21:00 -9°C° 0 mm 3 m/s 747 mmHg 90%
    22:00 -9°C° 0 mm 3 m/s 747 mmHg 90%
    23:00 -8°C° 0 mm 3 m/s 747 mmHg 89%

    24 Ianuarie, Joi

    Timp Temperatura Precipitaţii Vânt Presiune Umiditate
    00:00 -9°C° 0 mm 3 m/s 747 mmHg 90%
    01:00 -10°C° 0 mm 3 m/s 747 mmHg 91%
    02:00 -12°C° 0 mm 3 m/s 747 mmHg 91%
    03:00 -12°C° 0 mm 3 m/s 748 mmHg 92%
    04:00 -13°C° 0 mm 3 m/s 748 mmHg 93%
    05:00 -14°C° 0 mm 3 m/s 748 mmHg 94%
    06:00 -13°C° 0 mm 2 m/s 748 mmHg 94%
    07:00 -14°C° 0 mm 2 m/s 748 mmHg 94%
    08:00 -15°C° 0 mm 2 m/s 748 mmHg 94%
    09:00 -14°C° 0 mm 2 m/s 749 mmHg 92%
    10:00 -13°C° 0 mm 2 m/s 749 mmHg 90%
    11:00 -10°C° 0 mm 1 m/s 749 mmHg 88%
    12:00 -10°C° 0 mm 1 m/s 749 mmHg 88%
    13:00 -10°C° 0 mm 1 m/s 749 mmHg 89%
    14:00 -9°C° 0 mm 1 m/s 749 mmHg 90%
    15:00 -10°C° 0 mm 1 m/s 749 mmHg 90%
    16:00 -12°C° 0 mm 1 m/s 749 mmHg 90%
    17:00 -13°C° 0 mm 0 m/s 749 mmHg 90%
    18:00 -13°C° 0 mm 1 m/s 749 mmHg 90%
    19:00 -14°C° 0 mm 1 m/s 749 mmHg 90%
    20:00 -14°C° 0 mm 1 m/s 749 mmHg 90%
    21:00 -15°C° 0 mm 1 m/s 750 mmHg 90%
    22:00 -15°C° 0 mm 1 m/s 750 mmHg 90%
    23:00 -16°C° 0 mm 1 m/s 750 mmHg 90%

    25 Ianuarie, Vineri

    Timp Temperatura Precipitaţii Vânt Presiune Umiditate
    00:00 -16°C° 0 mm 1 m/s 750 mmHg 90%
    01:00 -18°C° 0 mm 2 m/s 750 mmHg 91%
    02:00 -18°C° 0 mm 2 m/s 750 mmHg 91%
    03:00 -18°C° 0 mm 2 m/s 750 mmHg 91%
    04:00 -17°C° 0 mm 2 m/s 749 mmHg 90%
    05:00 -17°C° 0 mm 2 m/s 749 mmHg 90%
    06:00 -17°C° 0 mm 2 m/s 749 mmHg 90%
    07:00 -17°C° 0 mm 2 m/s 749 mmHg 90%
    08:00 -18°C° 0 mm 3 m/s 749 mmHg 90%
    09:00 -17°C° 0 mm 3 m/s 749 mmHg 89%
    10:00 -17°C° 0 mm 3 m/s 749 mmHg 88%
    11:00 -17°C° 0 mm 3 m/s 749 mmHg 87%
    12:00 -16°C° 0 mm 3 m/s 749 mmHg 87%
    13:00 -16°C° 0 mm 3 m/s 748 mmHg 88%
    14:00 -16°C° 0 mm 3 m/s 748 mmHg 88%
    15:00 -16°C° 0 mm 3 m/s 748 mmHg 89%
    16:00 -16°C° 0 mm 3 m/s 747 mmHg 90%
    17:00 -16°C° 0 mm 3 m/s 747 mmHg 92%
    18:00 -16°C° 0 mm 3 m/s 747 mmHg 92%
    19:00 -16°C° 0 mm 3 m/s 747 mmHg 92%
    20:00 -16°C° 0 mm 3 m/s 746 mmHg 93%
    21:00 -16°C° 0 mm 3 m/s 746 mmHg 93%
    22:00 -16°C° 0 mm 3 m/s 746 mmHg 94%
    23:00 -15°C° 0 mm 2 m/s 745 mmHg 94%
    Arată mai mult